Regional Weather Roundup
Issued by NWS

Home | Current Version | Previous Version | Graphics & Text | Print | Product List | Glossary On
Versions: 1 2 3 4 5 6 7 8 9 10 11 12 13 14 15 16 17 18 19 20 21 22 23 24 25 26 27 28 29 30 31 32 33 34 35 36 37 38 39 40 41 42 43 44 45 46 47 48 49 50
000
ASUS45 KCYS 220610
RWRWY

WYOMING REGIONAL WEATHER ROUNDUP
NATIONAL WEATHER SERVICE CHEYENNE WY
1100 PM MST SUN DEC 21 2014

NOTE:  "FAIR" INDICATES FEW OR NO CLOUDS BELOW 12,000 FEET
WITH NO SIGNIFICANT WEATHER AND/OR OBSTRUCTIONS TO VISIBILITY.

WYZ001-220700-
YELLOWSTONE NATIONAL PARK

CITY           SKY/WX    TMP DP  RH WIND       PRES   REMARKS
LK YELLOWSTONE   N/A     23  18  81 VRB7      29.82R WCI  15
6HR MIN TEMP:  22; 6HR MAX TEMP:  27; 6HR PCP:  0.05;

W YELLOWSTONE  NOT AVBL

$$
WYZ002>013-054>058-071-098>099-220700-
NORTHERN WYOMING

CITY           SKY/WX    TMP DP  RH WIND       PRES   REMARKS
JACKSON        CLOUDY    34  18  51 W9G24     29.87R WCI  26
CODY           FAIR      36  21  55 W17G25    29.73R WCI  25
GREYBULL       CLOUDY    34  24  67 NW12      29.71R WCI  25
6HR MIN TEMP:  29; 6HR MAX TEMP:  35;

WORLAND        FAIR      34  28  79 CALM      29.72R
6HR MIN TEMP:  33; 6HR MAX TEMP:  37; 6HR PCP:  0.04;

SHERIDAN       CLOUDY    37  27  67 NW23      29.68R WCI  26
6HR MIN TEMP:  35; 6HR MAX TEMP:  41; 6HR PCP: TRACE;

BUFFALO        FAIR      31  28  89 N25G37    29.64R WCI  17
6HR MIN TEMP:  31; 6HR MAX TEMP:  43;

GILLETTE       LGT SNOW  33  31  92 NW22G30   29.62R FOG     WCI  21
6HR MIN TEMP:  33; 6HR MAX TEMP:  41; 6HR PCP:  0.01;

HULETT           N/A    N/A N/A N/A MISG        N/A
NEWCASTLE      LGT RAIN  32  32 100 NW15G25   29.58R WCI  22

$$
WYZ014>020-022>026-101>103-220700-
CENTRAL WYOMING

CITY           SKY/WX    TMP DP  RH WIND       PRES   REMARKS
BIG PINEY      FAIR      27  21  78 NW13      29.85R WCI  16
6HR MIN TEMP:  27; 6HR MAX TEMP:  35; 6HR PCP: TRACE;

PINEDALE       FAIR      23  18  80 NW13      29.83R WCI  11
DUBOIS         NOT AVBL
LANDER         FAIR      33  16  49 NW13      29.73R WCI  24
6HR MIN TEMP:  26; 6HR MAX TEMP:  36;

RIVERTON       FAIR      34  20  56 NW26G33   29.72R WCI  21
6HR MIN TEMP:  32; 6HR MAX TEMP:  38;

CASPER         MOCLDY    34  23  64 NW24G38   29.68R WCI  21
6HR MIN TEMP:  30; 6HR MAX TEMP:  39; 6HR PCP:  0.01;

DOUGLAS        FAIR      31  27  85 NW9       29.66R WCI  23
6HR MIN TEMP:  31; 6HR MAX TEMP:  39; 6HR PCP:  0.05;


$$
WYZ021-027>030-104>119-220700-
SOUTHERN WYOMING

CITY           SKY/WX    TMP DP  RH WIND       PRES   REMARKS
EVANSTON       FLURRIES  32  29  88 SW7       29.97R WCI  26
6HR MIN TEMP:  32; 6HR MAX TEMP:  36; 6HR PCP:  0.07;

KEMMERER       CLOUDY    32  28  86 W23G30    29.89R WCI  19
FORT BRIDGER   CLOUDY    34  32  93 W22G33    29.91R WCI  22
ROCK SPRINGS   MIX PCPN  32  26  78 W24G38    29.81S WCI  19
6HR MIN TEMP:  30; 6HR MAX TEMP:  36; 6HR PCP:  0.02;

DIXON          CLOUDY    34  27  74 W14       29.83R WCI  25
RAWLINS        FAIR      26  19  74 NW13      29.75R WCI  15
6HR MIN TEMP:  26; 6HR MAX TEMP:  36; 6HR PCP: TRACE;

SARATOGA       MOCLDY    27  23  86 NW5       29.75R WCI  21
LARAMIE        FAIR      24  22  91 N10       29.68R WCI  14
6HR MIN TEMP:  24; 6HR MAX TEMP:  36; 6HR PCP: TRACE;

CHEYENNE       FAIR      31  21  66 NW16G23   29.64R WCI  20
6HR MIN TEMP:  30; 6HR MAX TEMP:  39; 6HR PCP:  0.05;

TORRINGTON     FAIR     N/A N/A N/A NW12G25   29.62R
                                      6HR PCP:  0.01;

PINE BLUFFS    FAIR      32  30  93 NW10      29.62F WCI  24

$$


USA.gov is the U.S. government's official web portal to all federal, state and local government web resources and services.